Home > Weather > Randers > Past weeks

Flag for Denmark Past Weather in Randers, Denmark — Yesterday and Last 2 Weeks

Now
55 °F

Cool.


Feels Like: 55 °F
Forecast: 50 / 64 °F
Wind: 5 mph from Southwest

Location: Tirstrup

Current Time: Jun 27, 2016 at 6:01:49 AM

Latest Report: Jun 27, 2016 at 5:20 AM


Visibility: N/A

Pressure: 29.92 "Hg

Humidity: 82%

Dew Point: 50 °F

Location of RandersLocation

Past Weather in Randers — Graph

°F

Randers Temperature Yesterday

Maximum temperature yesterday: 70 °F (at 3:20 PM)
Minimum temperature yesterday: 57 °F (at 12:20 AM)
Average temperature yesterday: 63 °F

High & Low Weather Summary for the Past Weeks

 TemperatureHumidityPressure
High77 °F (Jun 24, 2:50 PM)94% (Jun 16, 2:50 AM)30.21 "Hg (Jun 16, 2:50 AM)
Low39 °F (Jun 12, 4:50 AM)28% (Jun 12, 4:50 PM)29.50 "Hg (Jun 14, 6:50 PM)
Average61 °F72%29.86 "Hg
* Reported Jun 12 4:20 AM — Jun 27 4:50 AM, Randers, Weather by CustomWeather, © 2016

Note: Actual official high and low records may vary slightly from our data, if they occured in-between our weather recording intervals... More about our weather records

Advertising

Randers Weather History for the Previous 24 Hours

Scroll right to see more
 ConditionsComfort  
Time TempWeatherWind HumidityBarometerVisibility
4:50 AM
Mon, Jun 27
55 °FCool.6 mph82%29.92 "HgN/A
4:20 AM55 °FCool.8 mph82%29.92 "HgN/A
3:50 AM57 °FCool.7 mph77%29.92 "HgN/A
3:20 AM55 °FCool.7 mph82%29.92 "HgN/A
2:50 AM57 °FCool.6 mph77%29.92 "HgN/A
2:20 AM57 °FCool.6 mph77%29.92 "HgN/A
1:50 AM57 °FCool.6 mph77%29.92 "HgN/A
1:20 AM57 °FCool.7 mph72%29.92 "HgN/A
12:50 AM57 °FCool.6 mph72%29.92 "HgN/A
12:20 AM57 °FCool.5 mph72%29.95 "HgN/A
11:50 PM
Sun, Jun 26
57 °FCool.6 mph72%29.95 "HgN/A
11:20 PM59 °FCool.6 mph68%29.95 "HgN/A
10:50 PM59 °FCool.5 mph68%29.92 "HgN/A
10:20 PM61 °FCool.6 mph63%29.92 "HgN/A
9:50 PM63 °FMild.5 mph56%29.92 "HgN/A
9:20 PM63 °FMild.6 mph56%29.92 "HgN/A
8:50 PM64 °FMild.7 mph56%29.92 "HgN/A
8:20 PM66 °FMild.8 mph52%29.92 "HgN/A
7:50 PM68 °FMild.8 mph46%29.92 "HgN/A
7:20 PM68 °FPartly sunny.10 mph53%29.92 "HgN/A
6:50 PM68 °FMild.9 mph49%29.92 "HgN/A
6:20 PM70 °FMild.10 mph46%29.89 "HgN/A
5:50 PM70 °FScattered clouds.12 mph46%29.89 "HgN/A
5:20 PM70 °FPassing clouds.9 mph46%29.92 "HgN/A
4:50 PM68 °FScattered clouds.8 mph53%29.92 "HgN/A
4:20 PM70 °FPassing clouds.12 mph46%29.92 "HgN/A
3:50 PM70 °FPassing clouds.12 mph46%29.92 "HgN/A
3:20 PM70 °FPassing clouds.12 mph50%29.92 "HgN/A
2:50 PM68 °FPassing clouds.12 mph56%29.89 "HgN/A
2:20 PM68 °FScattered clouds.14 mph56%29.89 "HgN/A
1:50 PM66 °FPartly sunny.10 mph60%29.89 "HgN/A
1:20 PM68 °FPartly sunny.15 mph53%29.89 "HgN/A
12:50 PM66 °FPartly sunny.12 mph60%29.89 "HgN/A
12:20 PM66 °FPartly sunny.12 mph56%29.89 "HgN/A
11:50 AM64 °FScattered clouds.13 mph64%29.86 "HgN/A
11:20 AM64 °FScattered clouds.12 mph68%29.86 "HgN/A
10:50 AM63 °FPartly sunny.13 mph68%29.83 "HgN/A
10:20 AM61 °FOvercast.10 mph77%29.83 "HgN/A
9:50 AM61 °FPartly sunny.10 mph72%29.83 "HgN/A
9:20 AM61 °FPartly sunny.12 mph72%29.80 "HgN/A
8:50 AM59 °FOvercast.10 mph82%29.80 "HgN/A
8:20 AM59 °FOvercast.8 mph82%29.77 "HgN/A
7:50 AM59 °FLow clouds.10 mph82%29.77 "HgN/A
7:20 AM57 °FLow clouds.9 mph88%29.77 "HgN/A
6:50 AM57 °FLow clouds.8 mph88%29.74 "HgN/A
6:20 AM57 °FLow clouds.9 mph88%29.74 "HgN/A
Weather by CustomWeather, © 2016

See weather overviewHow to use our weather pages